カタログに戻る

STARLINK-4255

運用中通信VLEO
NORAD 53003·PAYLOAD·🇺🇸 United States

打ち上げ Jul 7, 2022 から Cape Canaveral Space Force Station

Loading…

次のパス (今後24時間)

TLE

最新Source: CelesTrak SupGP

元期: Sep 14, 2026, 21:35 UTC

1 53003C 22076T   26257.89979167 -.00001143  00000+0 -33771-4 0  2578
2 53003  53.1588 309.5552 0001365  81.2050 119.9750 15.34387325    17

AllMySatでSTARLINK-4255をリアルタイム追跡

Download on the App Store